Location: Recife
(8.0585°S, 34.8848°W)
Time: 10:29:56
(UTC-03:00)

SR - Pass Details

Date: 17 April 2026
Orbit: 568 x 852 km, 66.7° (Epoch: 12 May)

Event Time Altitude Azimuth Distance (km) Brightness Sun altitude
Rises 11:47:20 0° 209° (SSW) 2,774 ? 70.0°
Reaches altitude 10° 11:49:36 10° 214° (SW) 1,869 ? 69.8°
Maximum altitude 11:53:37 49° 290° (WNW) 742 ? 69.4°
Drops below altitude 10° 11:57:42 10° 5° (N) 1,900 ? 69.0°
Sets 12:00:02 0° 10° (N) 2,825 ? 68.7°
